[[[{"header":{"parameterUnit":"kt","parameterCategory":2,"dx":1,"dy":1,"la1":30.253999710083008,"la2":30.299108505249023,"lo1":-89.0895004272461,"lo2":-89.04439544677734,"nx":28,"ny":28,"refTime":"2022-10-03T21:00:00:Z","depth":0,"parameterNumber":1,"parameterNumberName":"U-component_of_WINDS"},"data":[-8.9903,-9.0079,-9.0038,-9.022,-9.0214,-9.0332,-9.0361,-9.0395,-9.0411,-9.0549,-9.0622,-9.0599,-9.06,-9.0678,-9.0756,-9.0744,-9.078,-9.0874,-9.0845,-9.0459,-9.0403,-9.035,-9.0304,-9.0883,-9.0884,-9.1249,-9.1252,-9.1255,-8.9632,-8.9627,-8.971,-8.9763,-8.9835,-8.972,-8.9753,-8.9821,-8.993,-8.9951,-9.0018,-9.0137,-9.0225,-9.0192,-9.0271,-9.0355,-9.0305,-9.038,-9.0372,-9.0375,-8.9962,-8.9913,-9.0419,-9.0419,-9.0419,-9.0418,-9.0418,-9.0418,-8.9125,-8.9232,-8.9237,-8.9326,-8.9341,-8.9377,-8.9472,-8.9439,-8.952,-8.9594,-8.9527,-8.965,-8.9663,-8.9735,-8.9749,-8.9845,-8.9755,-8.9823,-8.984,-8.9859,-8.9886,-8.9368,-8.9856,-8.9855,-8.9853,-8.9852,-8.9851,0,-8.874,-8.8697,-8.8772,-8.8836,-8.8899,-8.8944,-8.8978,-8.9036,-8.8928,-8.9,-8.9101,-8.9152,-8.9254,-8.9345,-8.9408,-8.9406,-8.9294,-8.9277,-8.9324,-8.9358,-8.9383,-8.9373,-8.8703,-8.9263,-8.9257,-8.9254,-8.9251,-8.9249,-8.8226,-8.8354,-8.8337,-8.8396,-8.8402,-8.85,-8.8548,-8.8442,-8.85,-8.8526,-8.8627,-8.8715,-8.878,-8.8951,-8.891,-8.8986,-8.8932,-8.9151,-8.8942,-8.8972,-8.8937,-8.893,-8.8943,-8.9193,-8.92,-8.9206,-8.9211,0,-8.7942,-8.7867,-8.8051,-8.8019,-8.8015,-8.8156,-8.813,-8.8232,-8.8186,-8.8321,-8.8346,-8.8275,-8.8376,-8.8298,-8.8398,-8.8355,-8.8592,-8.8536,-8.8587,-8.8572,-8.8761,-8.8745,-8.9384,-8.9463,-8.8861,-8.8867,-8.8872,0,-8.7473,-8.7645,-8.7523,-8.7634,-8.7823,-8.7708,-8.7899,-8.7877,-8.7882,-8.7986,-8.7843,-8.7945,-8.7827,-8.7919,-8.7855,-8.8034,-8.8052,-8.803,-8.8011,-8.8043,-8.8046,-8.8071,-8.8044,-8.796,-8.7957,-8.7954,-8.7952,0,-8.7035,-8.7169,-8.7348,-8.7366,-8.7348,-8.7435,-8.7432,-8.7434,-8.7483,-8.7533,-8.7564,-8.7632,-8.767,-8.7726,-8.7642,-8.7504,-8.7858,-8.765,-8.7835,-8.7838,-8.7917,-8.7913,-8.8499,-8.7948,-8.7947,-8.7946,-8.7944,0,-8.6643,-8.6693,-8.6963,-8.6943,-8.6983,-8.7101,-8.7157,-8.7239,-8.7253,-8.7217,-8.7256,-8.7149,-8.7296,-8.7097,-8.7299,-8.7143,-8.719,-8.718,-8.7192,-8.72,-8.6979,-8.7321,-8.7887,-8.7943,-8.721,-8.7204,-8.7198,0,-8.6163,-8.6412,-8.6313,-8.6572,-8.6676,-8.6504,-8.6633,-8.6648,-8.6611,-8.6695,-8.6654,-8.6752,-8.6586,-8.6604,-8.6715,-8.6678,-8.6882,-8.6648,-8.6776,-8.6782,-8.6778,-8.7298,-8.7401,-8.7771,-8.7119,-8.7127,-8.7133,0,-8.5779,-8.575,-8.5803,-8.5818,-8.5815,-8.59,-8.6049,-8.6117,-8.6179,-8.621,-8.6332,-8.6466,-8.6346,-8.6379,-8.6298,-8.6418,-8.6741,-8.6272,-8.6271,-8.6361,-8.7071,-8.7169,-8.7232,-8.6661,-8.667,-8.6678,-8.707,0,-8.5207,-8.5319,-8.5458,-8.5494,-8.5546,-8.5702,-8.5611,-8.5678,-8.5594,-8.5549,-8.5727,-8.5716,-8.5788,-8.5835,-8.5753,-8.6051,-8.5989,-8.5859,-8.5658,-8.5999,-8.6126,-8.6178,-8.5476,-8.547,-8.5464,-8.546,0,0,-8.4766,-8.4924,-8.4807,-8.4943,-8.498,-8.4796,-8.4971,-8.4985,-8.5019,-8.505,-8.4937,-8.5124,-8.512,-8.5345,-8.5444,-8.5473,-8.5519,-8.5402,-8.5837,-8.588,-8.5919,-8.6056,-8.6111,-8.545,-8.5448,-8.5446,-8.5445,0,-8.4536,-8.4531,-8.4704,-8.4712,-8.472,-8.4663,-8.4705,-8.468,-8.4659,-8.483,-8.4677,-8.4772,-8.4923,-8.494,-8.4968,-8.5372,-8.5252,-8.5401,-8.5649,-8.5785,-8.5835,-8.5879,-8.6025,-8.6078,-8.5431,-8.5432,-8.5433,0,-8.4142,-8.4122,-8.4195,-8.4265,-8.4269,-8.4379,-8.4144,-8.427,-8.4351,-8.4142,-8.4314,-8.4296,-8.431,-8.4533,-8.463,-8.453,-8.5014,-8.4844,-8.4876,-8.4884,-8.5012,-8.5072,-8.5125,-8.4423,-8.442,-8.4417,0,0,-8.3957,-8.4058,-8.4001,-8.4209,-8.4222,-8.4137,-8.4185,-8.4104,-8.4117,-8.4123,-8.4095,-8.4115,-8.4201,-8.4261,-8.4337,-8.4595,-8.459,-8.4723,-8.4771,-8.481,-8.484,-8.4979,-8.5038,-8.4405,-8.4405,-8.4405,0,0,-8.3868,-8.3808,-8.3718,-8.3946,-8.3964,-8.3921,-8.4052,-8.3942,-8.3999,-8.3971,-8.384,-8.384,-8.4047,-8.4035,-8.3886,-8.4263,-8.4066,-8.4099,-8.4263,-8.4322,-8.4369,-8.4367,-8.3645,0,0,0,0,0,-8.3583,-8.3815,-8.3734,-8.3758,-8.3845,-8.3966,-8.3977,-8.3872,-8.3735,-8.3842,-8.3801,-8.3666,-8.3928,-8.3794,-8.3821,-8.3987,-8.4252,-8.4279,-8.4305,-8.4577,-8.4639,-8.4692,0,0,0,0,0,0,-8.3591,-8.3621,-8.3727,-8.3696,-8.3715,-8.3957,-8.3701,-8.3678,-8.372,-8.3692,-8.3678,-8.3666,-8.3581,-8.3772,-8.3799,-8.3959,-8.3635,-8.4263,-8.4286,-8.4307,-8.4598,-8.4649,-8.4693,0,0,0,0,0,-8.3597,-8.3621,-8.3788,-8.3692,-8.3708,-8.3625,-8.3691,-8.367,-8.3701,-8.3637,-8.362,-8.3618,-8.3588,-8.3603,-8.3787,-8.3949,-8.3617,-8.3627,-8.4278,-8.4296,-8.4312,-8.4623,0,0,0,0,0,0,-8.3602,-8.3604,-8.3789,-8.379,-8.3595,-8.3609,-8.3608,-8.3664,-8.3641,-8.3627,-8.3569,-8.3548,-8.3596,-8.3606,-8.3618,-8.3952,-8.3601,-8.3612,-8.3618,-8.4292,-8.4306,-8.4319,0,0,0,0,0,0,-8.359,-8.3607,-8.379,-8.3673,-8.366,-8.3596,-8.3594,-8.3736,-8.3643,-8.3574,-8.3555,-8.356,-8.3578,-8.361,-8.3618,-8.3843,-8.359,-8.3599,-8.3606,-8.3611,-8.4303,-8.4315,0,0,0,0,0,0,-8.3595,-8.3609,-8.3672,-8.3662,-8.365,-8.3655,-8.3718,-8.3815,-8.3541,-8.3578,-8.3514,-8.3501,-8.3586,-8.3592,-8.362,-8.3842,-8.3843,-8.359,-8.3597,-8.3601,-8.3604,0,0,0,0,0,0,0,-8.3599,-8.3532,-8.3783,-8.3653,-8.3642,-8.3801,-8.3801,-8.3801,-8.3539,-8.3528,-8.3517,-8.3507,-8.3533,-8.3544,-8.3555,-8.3841,0,0,-8.3589,-8.3594,0,0,0,0,0,0,0,0,-8.3524,-8.353,-8.3783,-8.3783,-8.3783,-8.3801,-8.3801,-8.3801,-8.3537,-8.3528,-8.3519,-8.3511,-8.3536,-8.3545,-8.3554,0,0,0,0,0,0,0,0,0,0,0,0,0,0,0,-8.3783,-8.3783,0,-8.3801,-8.3801,-8.3801,-8.3536,-8.3528,-8.3521,-8.3514,-8.3539,-8.3546,-8.3553,0,0,0,0,0,0,0,0,0,0,0,0,0,0,0,0,0,0,0,0,0,0,0,0,0,0,0,0,0,0,0,0,0,0,0,0,0,0,0,0,0,0,0,0,0,0,0,0,0,0,0,0,0,0,0,0,0,0,0,0,0,0,0,0,0,0,0,0,0]}],[{"header":{"parameterUnit":"kt","parameterCategory":2,"dx":1,"dy":1,"la1":30.253999710083008,"la2":30.299108505249023,"lo1":-89.0895004272461,"lo2":-89.04439544677734,"nx":28,"ny":28,"refTime":"2022-10-03T21:00:00:Z","depth":0,"parameterNumber":2,"parameterNumberName":"V-component_of_WINDS"},"data":[1.0737,1.0604,1.0556,1.0381,1.0307,1.0177,1.0115,1.0028,0.9946,0.9783,0.968,0.9614,0.9509,0.9371,0.9253,0.9225,0.9177,0.9168,0.9135,0.9227,0.9236,0.9244,0.9272,0.916,0.916,0.9046,0.9045,0.9044,1.0815,1.0743,1.0636,1.0499,1.0406,1.0387,1.0275,1.0197,1.008,0.9977,0.9872,0.9723,0.9596,0.949,0.9359,0.9291,0.9271,0.9259,0.926,0.9242,0.934,0.9371,0.9278,0.9278,0.9278,0.9278,0.9278,0.9278,1.0944,1.0865,1.0754,1.0636,1.0553,1.046,1.0375,1.0297,1.0188,1.0047,1.0006,0.987,0.9754,0.9567,0.9491,0.9381,0.9383,0.9352,0.9342,0.9334,0.9333,0.9502,0.9357,0.9357,0.9357,0.9357,0.9357,0,1.102,1.0985,1.0877,1.0756,1.0667,1.0566,1.0464,1.041,1.0311,1.0225,1.0095,1.001,0.9842,0.971,0.9574,0.9498,0.9459,0.9451,0.9428,0.9443,0.9477,0.9454,0.9612,0.9453,0.9454,0.9454,0.9454,0.9455,1.1142,1.1056,1.0913,1.0844,1.0776,1.0665,1.0588,1.0506,1.0427,1.0287,1.0219,1.0088,0.9977,0.9773,0.9673,0.9545,0.9523,0.9469,0.9503,0.9525,0.9517,0.9521,0.9511,0.9461,0.946,0.946,0.9459,0,1.1215,1.1132,1.0981,1.0845,1.0809,1.0722,1.0603,1.0519,1.0449,1.0322,1.0288,1.0174,1.0045,0.9954,0.9785,0.9741,0.9591,0.9576,0.9632,0.9622,0.9561,0.9566,0.9383,0.9353,0.9474,0.9473,0.9472,0,1.1283,1.1172,1.1054,1.097,1.0845,1.0764,1.0641,1.0568,1.0465,1.0364,1.0311,1.0217,1.0113,1.0005,0.9939,0.9801,0.9769,0.9725,0.9707,0.9726,0.9731,0.9675,0.9678,0.9676,0.9677,0.9677,0.9678,0,1.1401,1.1207,1.1073,1.1014,1.0854,1.0792,1.0722,1.0605,1.0528,1.0413,1.0361,1.0233,1.016,1.0061,0.9976,1.0002,0.9805,0.9824,0.9759,0.9761,0.9713,0.9716,0.9584,0.9679,0.968,0.968,0.968,0,1.1439,1.1329,1.1147,1.1012,1.0963,1.0873,1.0742,1.0644,1.0524,1.0477,1.0385,1.0334,1.0207,1.0233,1.0055,1.0114,1.0046,0.9992,0.9986,0.9962,0.9991,0.9923,0.9811,0.9793,0.9951,0.9953,0.9955,0,1.1597,1.1389,1.1317,1.1144,1.1035,1.0981,1.0879,1.0774,1.0703,1.0597,1.0516,1.0395,1.0394,1.0342,1.0268,1.0176,1.0101,1.0185,1.0026,1.0021,1.0056,0.9954,0.9957,0.9848,0.9983,0.998,0.9978,0,1.1706,1.1512,1.1486,1.1414,1.1264,1.117,1.1054,1.0917,1.0851,1.0738,1.0635,1.0463,1.0454,1.0368,1.031,1.0237,1.015,1.0236,1.0231,1.022,0.9989,0.9994,0.9976,1.0127,1.0124,1.0121,1.0,0,1.1778,1.1662,1.1589,1.1432,1.1346,1.1232,1.1133,1.1056,1.1012,1.0936,1.0784,1.0668,1.0522,1.0478,1.0431,1.0294,1.03,1.0291,1.0302,1.0238,1.0194,1.0177,1.0375,1.0375,1.0375,1.0375,0,0,1.1946,1.1777,1.1698,1.1582,1.1504,1.1445,1.1332,1.1248,1.1078,1.1024,1.1032,1.077,1.0673,1.0496,1.0469,1.0411,1.0375,1.04,1.027,1.0259,1.0248,1.0204,1.0188,1.0374,1.0374,1.0374,1.0374,0,1.195,1.1862,1.1752,1.1662,1.1527,1.1453,1.1427,1.128,1.1225,1.1076,1.1023,1.0919,1.071,1.0614,1.0538,1.0422,1.0384,1.0385,1.0356,1.0272,1.0261,1.0251,1.0206,1.0192,1.0374,1.0374,1.0374,0,1.2037,1.1932,1.1868,1.1689,1.1598,1.1485,1.1476,1.1356,1.127,1.1203,1.1054,1.0974,1.0837,1.0684,1.0611,1.0614,1.0398,1.0447,1.0446,1.0433,1.0346,1.0333,1.0322,1.0471,1.0472,1.0473,0,0,1.2054,1.1945,1.1801,1.1681,1.1629,1.1515,1.1444,1.139,1.1271,1.1223,1.1118,1.1001,1.0879,1.0799,1.0678,1.0525,1.0487,1.0464,1.0459,1.0456,1.0442,1.0354,1.0341,1.0476,1.0476,1.0476,0,0,1.2059,1.1889,1.1865,1.1714,1.1605,1.1452,1.1381,1.1346,1.1227,1.1228,1.1126,1.109,1.0945,1.0867,1.0919,1.0679,1.0693,1.0678,1.0734,1.0726,1.0722,1.0741,1.0886,0,0,0,0,0,1.201,1.1911,1.1892,1.1851,1.162,1.1465,1.1434,1.135,1.1363,1.1309,1.1217,1.1181,1.0875,1.0919,1.0878,1.0818,1.0514,1.0507,1.0501,1.0536,1.053,1.0524,0,0,0,0,0,0,1.1994,1.1945,1.1894,1.1739,1.1686,1.1467,1.147,1.1445,1.1367,1.1363,1.1201,1.1176,1.1099,1.0934,1.0898,1.0843,1.0898,1.0511,1.0505,1.05,1.0534,1.0529,1.0524,0,0,0,0,0,1.198,1.1941,1.1592,1.1739,1.1693,1.1559,1.1473,1.1452,1.1389,1.1244,1.1218,1.1333,1.11,1.1064,1.0912,1.0861,1.0922,1.0909,1.0507,1.0503,1.0499,1.0531,0,0,0,0,0,0,1.197,1.1918,1.1581,1.1563,1.177,1.1569,1.1535,1.1459,1.1273,1.1248,1.1372,1.1371,1.1099,1.1071,1.1044,1.0873,1.0942,1.0928,1.092,1.0504,1.0501,1.0497,0,0,0,0,0,0,1.1939,1.1904,1.1572,1.1615,1.1602,1.1579,1.1549,1.1406,1.1272,1.1412,1.1405,1.1374,1.1138,1.1076,1.1055,1.0835,1.0957,1.0944,1.0935,1.093,1.0501,1.0498,0,0,0,0,0,0,1.1923,1.1893,1.1619,1.1609,1.1598,1.1397,1.1451,1.1217,1.1315,1.1421,1.1321,1.1323,1.1144,1.112,1.1062,1.0852,1.084,1.0956,1.0948,1.0942,1.0938,0,0,0,0,0,0,0,1.191,1.2131,1.1684,1.1604,1.1594,1.1404,1.1399,1.1394,1.1315,1.1318,1.132,1.1322,1.1028,1.1015,1.1001,1.0866,0,0,1.0958,1.0951,0,0,0,0,0,0,0,0,1.2141,1.2133,1.1683,1.168,1.1676,1.1403,1.1399,1.1395,1.1316,1.1318,1.132,1.1321,1.1025,1.1014,1.1002,0,0,0,0,0,0,0,0,0,0,0,0,0,0,0,1.1683,1.168,0,1.1403,1.1399,1.1396,1.1316,1.1318,1.1319,1.1321,1.1022,1.1012,1.1003,0,0,0,0,0,0,0,0,0,0,0,0,0,0,0,0,0,0,0,0,0,0,0,0,0,0,0,0,0,0,0,0,0,0,0,0,0,0,0,0,0,0,0,0,0,0,0,0,0,0,0,0,0,0,0,0,0,0,0,0,0,0,0,0,0,0,0,0,0]}]]]